Starlink 31231

operational
NORAD ID: 59034 Int'l Des: 2024-038 Owner: SPXS Country: US Constellation: starlink
LEOCIRCULAR

Starlink 31231について

説明を読み込み中...

リアルタイム位置

3D地球を読み込み中...

次回通過

高度履歴

Altitude vs Time

uPlot chart will show altitude changes over time

軌道要素

1 59034U 24038M 25353.62882002 .00000352 00000-0 22322-4 0 9999
2 59034 43.0009 115.7340 0001100 268.8192 91.2533 15.27575171102443
Epoch: Dec 19, 2025 • Age: 36 hours

現在のステータス

高度 493.2 km
速度 7.62 km/s
衛星直下点 -36.99°S, 79.84°W
打ち上げ日 Feb 25, 2024
運用期間 1.8 years
タイプ internet

技術仕様

分類 Payload
質量 730.00 kg
乾燥質量 700.00 kg
総質量 730.00 kg
長さ 0.30 m
直径 4.10 m
スパン 29.00 m
形状 Box + pan
製造者 SPXS
バスタイプ Starlink V2M
フェーズステータス In Orbit
所有者/国 SPXS/US

大規模コンステレーション

Loading constellations...